[Iaude] MPEC X141: 2023 XU3 [a=1.07,e=0.46,i=45.0,H=24.0]

mpec at marsden.cfa.harvard.edu mpec at marsden.cfa.harvard.edu
Thu Dec 7 17:05:35 EST 2023


M.P.E.C. 2023-X141                             Issued 2023 December 7, 22:04 UT

     The Minor Planet Electronic Circulars contain information on unusual
         minor planets, routine data on comets and natural satellites,
         and occasional editorial announcements.  They are published
    on behalf of Division F of the International Astronomical Union by the
          Minor Planet Center, Smithsonian Astrophysical Observatory,
                          Cambridge, MA 02138, U.S.A.
			  
             Prepared using the Tamkin Foundation Computer Network

                              MPC at CFA.HARVARD.EDU
            URL https://www.minorplanetcenter.net/    ISSN 1523-6714

                                    2023 XU3                                    


Observations:
     K23X03U  C2023 12 06.38937 04 22 33.29 +19 19 15.7          19.0 GVEX141703
     K23X03U  C2023 12 06.39397 04 22 25.06 +19 21 03.6          19.0 GVEX141703
     K23X03U*1C2023 12 07.28997303 53 22.272+25 28 30.83         18.97GVEX141703
     K23X03U 1C2023 12 07.29203503 53 17.711+25 29 22.67         19.74GVEX141703
     K23X03U 1C2023 12 07.29615003 53 08.538+25 31 07.46         19.64GVEX141703
     K23X03U mC2023 12 07.32110903 52 12.630+25 41 44.70         18.95GVEX141I52
     K23X03U mC2023 12 07.32130203 52 12.194+25 41 49.85         19.03GVEX141I52
     K23X03U mC2023 12 07.32149403 52 11.762+25 41 54.49         18.98GVEX141I52
     K23X03U mC2023 12 07.32168703 52 11.327+25 41 59.39         18.83GVEX141I52
     K23X03U mC2023 12 07.39690703 49 21.378+26 13 56.71         18.79GVEX141I52
     K23X03U mC2023 12 07.39710003 49 20.960+26 14 01.46         18.76GVEX141I52
     K23X03U mC2023 12 07.39730303 49 20.507+26 14 06.43         18.94GVEX141I52
     K23X03U mC2023 12 07.39749903 49 20.053+26 14 11.87         18.96GVEX141I52
     K23X03U  C2023 12 07.66681 03 38 57.46 +28 10 10.0          19.2 RrEX141P93
     K23X03U  C2023 12 07.66860 03 38 53.12 +28 10 55.7          19.2 RrEX141P93
     K23X03U  C2023 12 07.67218 03 38 44.39 +28 12 28.2          18.5 RrEX141P93
     K23X03U  C2023 12 07.67396 03 38 40.04 +28 13 13.7          19.1 RrEX141P93
     K23X03U KB2023 12 07.75403 03 35 35.97 +28 47 17.9          17.9 RZEX141106
     K23X03U KC2023 12 07.75651 03 35 30.01 +28 48 36.7          19.5 VZEX141M63
     K23X03U KB2023 12 07.75713 03 35 28.31 +28 48 38.6          18.7 RZEX141106
     K23X03U KC2023 12 07.76000603 35 21.49 +28 49 50.5          19.2 GVEX141L06
     K23X03U KB2023 12 07.76041 03 35 20.20 +28 50 04.4          18.5 RZEX141106
     K23X03U KC2023 12 07.76098 03 35 18.93 +28 50 32.9          19.7 VZEX141M63
     K23X03U KB2023 12 07.76229103 35 15.452+28 50 41.77         18.8 GXEX141B72
     K23X03U KC2023 12 07.76235703 35 15.69 +28 50 52.0          18.9 GVEX141L06
     K23X03U KB2023 12 07.76357 03 35 12.39 +28 51 26.8          18.1 RZEX141106
     K23X03U KC2023 12 07.76470803 35 09.89 +28 51 53.2          18.8 GVEX141L06
     K23X03U KC2023 12 07.76533 03 35 08.11 +28 52 26.7          19.3 VZEX141M63
     K23X03U KB2023 12 07.77299203 34 48.996+28 55 20.89         18.8 GXEX141B72
     K23X03U KC2023 12 07.77528103 34 43.673+28 56 33.65         20.5 GVEX141M60
     K23X03U KC2023 12 07.78058803 34 30.485+28 58 52.07         19.9 GVEX141M60
     K23X03U KC2023 12 07.78593803 34 17.119+29 01 11.89         19.1 GVEX141M60
     K23X03U KC2023 12 07.83581 03 32 11.74 +29 22 51.0          19.2 GVEX141104
     K23X03U KC2023 12 07.84061 03 31 59.53 +29 24 56.2          19.4 GVEX141104
     K23X03U KC2023 12 07.84536 03 31 47.50 +29 26 59.6          19.1 GVEX141104
     K23X03U KC2023 12 07.87211303 30 38.89 +29 38 31.2          18.8 GVEX141L01
     K23X03U KC2023 12 07.87324903 30 36.00 +29 39 00.8          19.0 GVEX141L01
     K23X03U KC2023 12 07.87438603 30 33.08 +29 39 30.6          18.8 GVEX141L01
     K23X03U KC2023 12 07.87552103 30 30.19 +29 40 00.0          18.9 GVEX141L01
     K23X03U KC2023 12 07.87665803 30 27.28 +29 40 28.9          18.8 GVEX141L01

Observer details:
104 San Marcello Pistoiese.  Observers P. Bacci, M. Maestripieri.  Measurer P.
    Bacci.  0.60-m f/4.0 reflector + CCD.
106 Crni Vrh.  Observer H. Mikuz.  0.60-m f/3.3 reflector + CMO.
703 Catalina Sky Survey.  Observers G. J. Leonard, R. A. Kowalski.  Measurers
    B. Gray, D. Rankin, F. C. Shelly, E. C. Beshore, D. Fay, J. B. Fazekas, D.
    C. Fuls, A. R. Gibbs, A. D. Grauer, H. Groeller, J. K. Hogan, R. A.
    Kowalski, S. M. Larson, G. J. Leonard, R. L. Seaman, K. W. Wierzchos.
    0.68-m Schmidt + 10K CCD.
B72 Soerth.  Observers T. Krebs, B. Koch.  0.36-m f/7.6 reflector + CMO.
I52 Steward Observatory, Mt. Lemmon Station.  Observer K. W. Wierzchos.
    Measurers E. C. Beshore, D. Fay, J. B. Fazekas, D. C. Fuls, A. R. Gibbs,
    A. D. Grauer, H. Groeller, J. K. Hogan, R. A. Kowalski, S. M. Larson, G.
    J. Leonard, D. Rankin, R. L. Seaman, F. C. Shelly, K. W. Wierzchos.  1.0-m
    prime focus + CCD.
L01 Visnjan Observatory, Tican.  Observers K. Korlevic, I. Lyon.  Measurer K.
    Korlevic.  1.0-m f/2.9 reflector + CCD.
L06 Sormano 2 Observatory, Bellagio Via Lattea.  Observer G. Ventre.  Measurer
    P. Sicoli.  0.36m Schmidt Cassegrain + CCD.
M60 Virgil Observatory, Loiano.  Observer A. Carbognani.  0.3-m f/4.0
    Reflector + CCD.
M63 RPF Observatory, Gagliano del Capo.  Observer D. Licchelli.  0.30-m f/5.3
    reflector + CCD.
P93 Space Tracking and Communications Center, JAXA.  Observers T. Nimura, T.
    Fujiwara.  1.0-m f/3.0 reflector + CCD.

Orbital elements:
2023 XU3                                                 Earth MOID = 0.0593 AU
Epoch 2023 Sept. 13.0 TT = JDT 2460200.5                MPC                     
M 223.22940              (2000.0)            P               Q                  
n   0.88504136     Peri.  116.31076     -0.73450354     +0.04326071             
a   1.0743860      Node    73.33460     -0.47482545     -0.74573874             
e   0.4647880      Incl.   44.98471     +0.48481474     -0.66483249             
P   1.11           H   24.07          G   0.15           U   8                  
Residuals in seconds of arc
231206 703  1.0+  0.4-    231207 P93  0.1+  0.2-    231207 B72  0.1-  0.2+
231206 703  0.6-  0.7+    231207 P93  0.1+  0.3+    231207 M60  0.4+  0.3-
231207 703  0.1+  0.4+    231207 P93  0.0   0.0     231207 M60  0.7+  0.4-
231207 703  0.6+  0.3-    231207 106  0.1-  0.3+    231207 M60  0.4+  0.1-
231207 703  0.8+  0.6-    231207 M63  0.2-  0.5+    231207 104  0.4+  0.1-
231207 I52  0.0   0.0     231207 106  0.0   0.0     231207 104  0.2-  0.3+
231207 I52  0.0   0.3+    231207 L06  0.5-  0.4-    231207 104  0.3+  0.3+
231207 I52  0.0   0.0     231207 106  0.1+  0.2+    231207 L01  0.0   0.3-
231207 I52  0.1-  0.0     231207 M63  0.1-  0.0     231207 L01  0.2+  0.1-
231207 I52  0.2-  0.0     231207 B72  0.6-  0.3+    231207 L01  0.1+  0.2+
231207 I52  0.1+  0.2-    231207 L06  0.3-  0.2-    231207 L01  0.3+  0.2+
231207 I52  0.2+  0.4-    231207 106  0.3+  0.1+    231207 L01  0.3+  0.3-
231207 I52  0.1+  0.1+    231207 L06  0.0   0.4-
231207 P93  0.1-  0.2+    231207 M63  0.3-  0.2+

Ephemeris:
2023 XU3                 a,e,i = 1.07, 0.46, 45                  q = 0.5750
Date    TT    R. A. (2000) Decl.     Delta      r    Elong.  Phase     V
2023 11 07    06 39 53.0 -16 00 06   0.4825  1.2668   114.0    45.6    24.7
...
2023 11 22    06 28 00.6 -12 40 08   0.2613  1.1694   128.8    41.2    23.1
...
2023 11 30    05 56 39.8 -04 36 21   0.1491  1.1118   145.0    30.6    21.5
...
2023 12 06    04 33 18.8 +16 52 18   0.08118 1.0662   173.6     5.9    19.2
2023 12 07    04 03 35.0 +23 26 06   0.07434 1.0584   168.9    10.3    19.2
2023 12 08    03 25 13.4 +30 33 45   0.06998 1.0505   158.2    20.3    19.4
...
2023 12 14    22 27 23.5 +45 36 17   0.1005  1.0023    97.3    76.9    21.8
...
2023 12 22    20 33 16.7 +36 33 09   0.1999  0.9354    70.3    98.1    24.0
...
2024 01 06    19 47 51.5 +28 54 03   0.3997  0.8056    52.6   104.2    25.5

A. U. Tomatic                (C) Copyright 2023 MPC           M.P.E.C. 2023-X141





More information about the Iaude mailing list